sat.trackr.live / text

‹ back to catalog

STARLINK-34716

NORAD 65352 · 2025-190B

PAYLOAD ACTIVE UNKNOWN

§ Identity

Operator
Country
US
Launch date
2025-08-28
Launch site
AFETR
Launch vehicle
Mass (kg)
RCS (m²)

Purposes: comms

External: N2YO · Heavens-Above · Gunter

§ Orbital elements

Epoch: 2026-05-24T10:41:44.291328Z

Period
94.11 min
Inclination
53.1568°
Eccentricity
0.0000881
Mean motion
15.30205266 rev/d
Perigee alt
474.6 km
Apogee alt
475.8 km
Semi-major
6,853.3 km
B*
2.6920e-4
RAAN
176.3118°
Arg perigee
82.6520°
Mean anomaly
277.4581°
Rev number
4,135

§ Raw data

STARLINK-347161 65352U 25190B   26144.44565152  .00007623  00000+0  26920-3 0  99962 65352  53.1568 176.3118 0000881  82.6520 277.4581 15.30205266 41355

JSON: /api/v1/satellites/65352 · /tle

For live sub-satellite position, see the globe view (requires WebGL).

§ Visibility from observer

Set your observer location to see the next 7 days of passes ≥ 10°. The values pass through the URL so the page stays shareable.

No JS? Fill the form by hand. The geolocation button needs JavaScript.